User: anonymous   Login
Location: Unspecified
(0.0000°N, 0.0000°E)
Time: 21:59:46
(UTC+00:00)
Language:

DNEPR OBJECT AD - Orbit

View from above orbital plane
View from above orbital plane
View from above satellite
View from above satellite

Ground track
Ground track

The orbit data is extracted from the following two-line orbital elements,

1 39443U 13066AD  17082.73395034 +.00001643 +00000-0 +15880-3 0  9990
2 39443 097.6637 150.3031 0026211 137.9299 222.3940 14.93916185179576
Epoch (UTC): 23 March 2017 17:36:53
Eccentricity: 0.0026211
inclination: 97.6637°
perigee height: 567 km
apogee height: 604 km
right ascension of ascending node: 150.3031°
argument of perigee: 137.9299°
revolutions per day: 14.93916185
mean anomaly at epoch: 222.3940°
orbit number at epoch: 17957

The dashed part of the orbit path shows where the satellite is in the earth's shadow,  

DLR